IRIDIUM 911 (24842 NORAD) Tracking and Keplerian Element Data

This shows tracking and keplerian element data for the satellite.

Feedback or suggestion? Click here.




ElementValue
Catalog24842
NameIRIDIUM 911
Epoch Orbit45580
Epoch Day34.90665061
Epoch Year2025
RAAN260.1784
Inclination86.4418
Eccentricity0.0014134
Argument of Perigee174.0809
Mean Anonmoly186.0564
Mean Motion14.47342958
Decay Rate1.025E-05
L11 24842U 97030G 25034.90665061 .00001025 00000+0 27414-3 0 9994
L22 24842 86.4418 260.1784 0014134 174.0809 186.0564 14.47342958455802



Live tracking and technical data element details for IRIDIUM 911 (NORAD 24842). IRIDIUM 911 can be tracked NOW for your location showing map with azimuth and elevation plus other details from your city location.







IsCatalogInMostPopularTable: catalog: 24842, numindb: 454
Update: records affected: 1



GetName: 24842 IRIDIUM 911

Hit Count: updated at: Thu, 15 May 2025 18:07:15 GMT